• In Russia
  • List of Countries
  • For 7 days
  • Water Temperature
  • Satellite Maps
  • Weather Map
  • Weather Widgets
  • user-avatar
    Login

    Hourly Weather Nuwejba

    Today, 25 May, Friday

    Time Temperature Precipitation Wind Pressure Humidity
    00:00 +27°C° 0 mm 3 mps 691 mmHg 24%
    01:00 +26°C° 0 mm 2 mps 690 mmHg 25%
    02:00 +26°C° 0 mm 2 mps 690 mmHg 26%
    03:00 +25°C° 0 mm 2 mps 690 mmHg 26%
    04:00 +25°C° 0 mm 1 mps 690 mmHg 27%
    05:00 +24°C° 0 mm 1 mps 690 mmHg 27%
    06:00 +26°C° 0 mm 1 mps 690 mmHg 25%
    07:00 +27°C° 0 mm 2 mps 690 mmHg 23%
    08:00 +28°C° 0 mm 2 mps 691 mmHg 21%
    09:00 +29°C° 0 mm 2 mps 691 mmHg 20%
    10:00 +30°C° 0 mm 2 mps 691 mmHg 19%
    11:00 +31°C° 0 mm 2 mps 691 mmHg 19%
    12:00 +33°C° 0 mm 3 mps 691 mmHg 18%
    13:00 +34°C° 0 mm 3 mps 690 mmHg 17%
    14:00 +35°C° 0 mm 3 mps 690 mmHg 17%
    15:00 +34°C° 0 mm 4 mps 690 mmHg 17%
    16:00 +34°C° 0 mm 4 mps 690 mmHg 17%
    17:00 +34°C° 0 mm 4 mps 690 mmHg 17%
    18:00 +33°C° 0 mm 3 mps 690 mmHg 18%
    19:00 +31°C° 0 mm 3 mps 690 mmHg 19%
    20:00 +30°C° 0 mm 2 mps 690 mmHg 20%
    21:00 +30°C° 0 mm 2 mps 690 mmHg 21%
    22:00 +29°C° 0 mm 2 mps 690 mmHg 22%
    23:00 +28°C° 0 mm 2 mps 690 mmHg 23%

    Tomorrow, 26 May, Saturday

    Time Temperature Precipitation Wind Pressure Humidity
    00:00 +28°C° 0 mm 2 mps 690 mmHg 24%
    01:00 +27°C° 0 mm 1 mps 689 mmHg 25%
    02:00 +27°C° 0 mm 1 mps 689 mmHg 26%
    03:00 +26°C° 0 mm 1 mps 689 mmHg 27%
    04:00 +26°C° 0 mm 2 mps 689 mmHg 27%
    05:00 +26°C° 0 mm 2 mps 689 mmHg 28%
    06:00 +27°C° 0 mm 2 mps 689 mmHg 26%
    07:00 +29°C° 0 mm 2 mps 689 mmHg 23%
    08:00 +30°C° 0 mm 2 mps 690 mmHg 21%
    09:00 +31°C° 0 mm 2 mps 690 mmHg 20%
    10:00 +32°C° 0 mm 2 mps 690 mmHg 19%
    11:00 +35°C° 0 mm 3 mps 690 mmHg 17%
    12:00 +35°C° 0 mm 3 mps 690 mmHg 17%
    13:00 +35°C° 0 mm 4 mps 689 mmHg 16%
    14:00 +36°C° 0 mm 4 mps 689 mmHg 16%
    15:00 +35°C° 0.2 mm 4 mps 688 mmHg 16%
    16:00 +35°C° 0.2 mm 3 mps 688 mmHg 17%
    17:00 +34°C° 0.2 mm 3 mps 688 mmHg 18%
    18:00 +33°C° 0.1 mm 3 mps 688 mmHg 20%
    19:00 +31°C° 0.1 mm 3 mps 689 mmHg 23%
    20:00 +30°C° 0.1 mm 2 mps 689 mmHg 26%
    21:00 +29°C° 0 mm 2 mps 689 mmHg 30%
    22:00 +29°C° 0 mm 2 mps 689 mmHg 35%
    23:00 +28°C° 0 mm 2 mps 689 mmHg 39%

    Day after tomorrow, 27 May, Sunday

    Time Temperature Precipitation Wind Pressure Humidity
    00:00 +27°C° 0 mm 2 mps 689 mmHg 42%
    01:00 +26°C° 0 mm 2 mps 689 mmHg 46%
    02:00 +26°C° 0 mm 2 mps 688 mmHg 49%
    03:00 +25°C° 0 mm 2 mps 688 mmHg 51%
    04:00 +25°C° 0 mm 2 mps 688 mmHg 54%
    05:00 +24°C° 0 mm 2 mps 688 mmHg 56%
    06:00 +26°C° 0 mm 2 mps 689 mmHg 51%
    07:00 +27°C° 0 mm 2 mps 689 mmHg 45%
    08:00 +28°C° 0 mm 2 mps 690 mmHg 40%
    09:00 +30°C° 0 mm 3 mps 690 mmHg 34%
    10:00 +31°C° 0 mm 3 mps 690 mmHg 28%
    11:00 +34°C° 0 mm 4 mps 690 mmHg 21%
    12:00 +34°C° 0.1 mm 4 mps 690 mmHg 21%
    13:00 +35°C° 0.1 mm 4 mps 690 mmHg 21%
    14:00 +35°C° 0.1 mm 5 mps 690 mmHg 20%
    15:00 +34°C° 0.5 mm 4 mps 689 mmHg 21%
    16:00 +34°C° 0.5 mm 4 mps 689 mmHg 22%
    17:00 +33°C° 0.5 mm 3 mps 689 mmHg 23%
    18:00 +31°C° 0.3 mm 3 mps 689 mmHg 26%
    19:00 +30°C° 0.3 mm 2 mps 690 mmHg 28%
    20:00 +30°C° 0.3 mm 2 mps 690 mmHg 30%
    21:00 +29°C° 0.1 mm 2 mps 690 mmHg 33%
    22:00 +29°C° 0.1 mm 2 mps 690 mmHg 36%
    23:00 +28°C° 0.1 mm 2 mps 690 mmHg 38%

    28 May, Monday

    Time Temperature Precipitation Wind Pressure Humidity
    00:00 +28°C° 0.1 mm 2 mps 690 mmHg 41%
    01:00 +27°C° 0.1 mm 2 mps 689 mmHg 44%
    02:00 +27°C° 0.1 mm 2 mps 689 mmHg 47%
    03:00 +26°C° 0.1 mm 2 mps 689 mmHg 50%
    04:00 +26°C° 0.1 mm 2 mps 689 mmHg 52%
    05:00 +25°C° 0.1 mm 2 mps 689 mmHg 55%
    06:00 +26°C° 0.1 mm 2 mps 689 mmHg 53%
    07:00 +26°C° 0.1 mm 2 mps 690 mmHg 51%
    08:00 +27°C° 0.1 mm 2 mps 690 mmHg 50%
    09:00 +27°C° 0.1 mm 2 mps 690 mmHg 47%
    10:00 +28°C° 0.1 mm 2 mps 690 mmHg 44%
    11:00 +28°C° 0.1 mm 3 mps 690 mmHg 41%
    12:00 +29°C° 0.2 mm 3 mps 690 mmHg 38%
    13:00 +29°C° 0.2 mm 4 mps 690 mmHg 35%
    14:00 +30°C° 0.2 mm 4 mps 689 mmHg 32%
    15:00 +30°C° 0.1 mm 4 mps 689 mmHg 31%
    16:00 +30°C° 0.1 mm 3 mps 689 mmHg 29%
    17:00 +30°C° 0.1 mm 3 mps 689 mmHg 28%
    18:00 +29°C° 0.1 mm 2 mps 689 mmHg 30%
    19:00 +29°C° 0.1 mm 2 mps 689 mmHg 32%
    20:00 +28°C° 0.1 mm 2 mps 689 mmHg 35%
    21:00 +27°C° 0 mm 2 mps 689 mmHg 38%
    22:00 +27°C° 0 mm 2 mps 689 mmHg 41%
    23:00 +26°C° 0 mm 2 mps 689 mmHg 45%

    29 May, Tuesday

    Time Temperature Precipitation Wind Pressure Humidity
    00:00 +26°C° 0 mm 2 mps 689 mmHg 49%
    01:00 +25°C° 0 mm 2 mps 688 mmHg 52%
    02:00 +25°C° 0 mm 2 mps 688 mmHg 56%
    03:00 +24°C° 0 mm 2 mps 688 mmHg 57%
    04:00 +24°C° 0 mm 2 mps 688 mmHg 58%
    05:00 +24°C° 0 mm 2 mps 688 mmHg 59%
    06:00 +25°C° 0 mm 2 mps 689 mmHg 55%
    07:00 +26°C° 0 mm 2 mps 689 mmHg 50%
    08:00 +27°C° 0 mm 2 mps 689 mmHg 46%
    09:00 +28°C° 0 mm 2 mps 689 mmHg 41%
    10:00 +29°C° 0 mm 3 mps 689 mmHg 37%
    11:00 +30°C° 0 mm 3 mps 689 mmHg 32%
    12:00 +31°C° 0 mm 3 mps 689 mmHg 29%
    13:00 +33°C° 0 mm 3 mps 689 mmHg 26%
    14:00 +34°C° 0 mm 4 mps 688 mmHg 24%
    15:00 +34°C° 0 mm 4 mps 688 mmHg 24%
    16:00 +33°C° 0 mm 4 mps 688 mmHg 24%
    17:00 +33°C° 0 mm 4 mps 688 mmHg 25%
    18:00 +32°C° 0 mm 4 mps 688 mmHg 30%
    19:00 +30°C° 0 mm 4 mps 689 mmHg 36%
    20:00 +29°C° 0 mm 4 mps 689 mmHg 41%
    21:00 +28°C° 0 mm 4 mps 689 mmHg 47%
    22:00 +27°C° 0 mm 4 mps 689 mmHg 53%
    23:00 +26°C° 0 mm 4 mps 689 mmHg 59%

    30 May, Wednesday

    Time Temperature Precipitation Wind Pressure Humidity
    00:00 +25°C° 0 mm 3 mps 688 mmHg 60%
    01:00 +25°C° 0 mm 3 mps 688 mmHg 61%
    02:00 +24°C° 0 mm 3 mps 688 mmHg 63%
    03:00 +24°C° 0 mm 3 mps 688 mmHg 63%
    04:00 +24°C° 0 mm 3 mps 688 mmHg 64%
    05:00 +22°C° 0 mm 3 mps 688 mmHg 65%
    06:00 +24°C° 0 mm 3 mps 689 mmHg 61%
    07:00 +24°C° 0 mm 3 mps 689 mmHg 57%
    08:00 +25°C° 0 mm 3 mps 689 mmHg 53%
    09:00 +26°C° 0 mm 3 mps 689 mmHg 48%
    10:00 +28°C° 0 mm 3 mps 689 mmHg 44%
    11:00 +29°C° 0 mm 3 mps 689 mmHg 40%
    12:00 +30°C° 0 mm 3 mps 689 mmHg 37%
    13:00 +30°C° 0 mm 3 mps 689 mmHg 34%
    14:00 +31°C° 0 mm 3 mps 689 mmHg 32%
    15:00 +31°C° 0 mm 3 mps 689 mmHg 31%
    16:00 +31°C° 0 mm 3 mps 689 mmHg 31%
    17:00 +31°C° 0 mm 3 mps 689 mmHg 30%
    18:00 +30°C° 0 mm 3 mps 689 mmHg 32%
    19:00 +30°C° 0 mm 3 mps 689 mmHg 33%
    20:00 +29°C° 0 mm 3 mps 690 mmHg 35%
    21:00 +28°C° 0 mm 3 mps 690 mmHg 40%
    22:00 +27°C° 0 mm 3 mps 690 mmHg 46%
    23:00 +26°C° 0 mm 3 mps 690 mmHg 51%
    Show more